Location: Grantsboro
(35.1404°N, 76.8424°W)
Time: 16:54:27
(UTC+00:00)

Cosmos 2297 Rocket - Pass Details

Date: 18 January 2020
Orbit: 838 x 845 km, 71.0° (Epoch: 21 February)

Event Time Altitude Azimuth Distance (km) Brightness Sun altitude
Exits shadow 11:11:13 17° 299° (WNW) 2,015 3.6 -12.9°
Maximum altitude 11:14:08 26° 258° (WSW) 1,622 3.2 -12.4°
Drops below altitude 10° 11:18:40 10° 204° (SSW) 2,456 4.5 -11.5°
Sets 11:21:29 0° 192° (SSW) 3,386 5.4 -10.9°
